Weather History for Lancaster, CA

Change the Weather History Date:

Sunday, December 11, 2011

  Actual Average Record
Temperature  
Mean Temperature 38 °F 44 °F  
Max Temperature 58 °F 58 °F 74 °F (1958)
Min Temperature 18 °F 30 °F 15 °F (2013)
Degree Days  
Heating Degree Days 27    
Month to date heating degree days 290  
Since 1 July heating degree days 889  
Cooling Degree Days 0    
Month to date cooling degree days 0  
Year to date cooling degree days 1754  
Moisture  
Dew Point 23 °F    
Average Humidity 52    
Maximum Humidity 79    
Minimum Humidity 24    
Precipitation  
Precipitation 0.00 in 0.03 in 0.16 in (1993)
Month to date precipitation 0.00 0.31  
Year to date precipitation 4.64 6.54  
Since 1 July precipitation 0.99 1.63  
Snow  
Snow 0.00 in - T in (1985)
Month to date snowfall 0.0  
Since 1 July snowfall 0.0  
Snow Depth 0.00 in    
Sea Level Pressure  
Sea Level Pressure 29.95 in    
Wind  
Wind Speed 7 mph (West)    
Max Wind Speed 21 mph    
Max Gust Speed 25 mph    
Visibility 10 miles    
Events      
T = Trace of Precipitation, MM = Missing Value Source: NWS Daily Summary

Daily Weather History Graph

Daily Weather History Graph

Search for Another Location

Airport:

Trip Planner

Search our weather history database for the weather conditions in past years. The results will help you decide how hot, cold, wet, or windy it might be!

Date:

Astronomy

Dec. 11, 2011 Rise Set
Actual Time 6:49 AM PST 4:42 PM PST
Civil Twilight 6:21 AM PST 5:10 PM PST
Nautical Twilight 5:50 AM PST 5:41 PM PST
Astronomical Twilight 5:19 AM PST 6:12 PM PST
Moon 5:56 PM PST (12/11) 7:41 AM PST (12/11)
Length of Visible Light 10h 48m
Length of Day
9h 52m
Full, 99% of the Moon is Illuminated
Dec 11
Full
Dec 17
Last Quarter
Dec 24
New
Dec 31
First Quarter
Jan 8
Full

Hourly Weather History & Observations

Time (PST) Temp. Windchill Dew Point Humidity Pressure Visibility Wind Dir Wind Speed Gust Speed Precip Events Conditions
12:56 AM 26.1 °F 21.9 °F 12.0 °F 55% 30.06 in 10.0 mi West 3.5 mph - N/A   Clear
1:56 AM 28.9 °F - 12.9 °F 51% 30.04 in 10.0 mi Calm Calm - N/A   Clear
2:56 AM 25.0 °F - 12.0 °F 58% 30.04 in 10.0 mi Calm Calm - N/A   Clear
3:56 AM 26.1 °F - 12.9 °F 58% 30.02 in 10.0 mi Calm Calm - N/A   Clear
4:56 AM 25.0 °F - 12.0 °F 58% 30.01 in 10.0 mi Calm Calm - N/A   Clear
5:56 AM 21.9 °F - 12.0 °F 66% 30.04 in 10.0 mi Calm Calm - N/A   Clear
6:56 AM 21.9 °F - 12.0 °F 66% 30.06 in 10.0 mi Calm Calm - N/A   Clear
7:56 AM 26.1 °F - 15.1 °F 63% 30.06 in 10.0 mi Calm Calm - N/A   Clear
8:56 AM 34.0 °F - 16.0 °F 48% 30.04 in 10.0 mi Calm Calm - N/A   Clear
9:56 AM 42.1 °F - 15.1 °F 34% 30.03 in 10.0 mi Calm Calm - N/A   Clear
10:56 AM 46.9 °F - 15.1 °F 28% 29.99 in 10.0 mi Calm Calm - N/A   Clear
11:56 AM 52.0 °F - 16.0 °F 24% 29.95 in 10.0 mi Calm Calm - N/A   Clear
12:56 PM 55.9 °F - 19.0 °F 24% 29.91 in 10.0 mi Variable 3.5 mph - N/A   Clear
1:56 PM 57.0 °F - 24.1 °F 28% 29.88 in 10.0 mi WSW 13.8 mph - N/A   Clear
2:56 PM 54.0 °F - 28.0 °F 37% 29.87 in 10.0 mi WSW 19.6 mph 25.3 mph N/A   Clear
3:56 PM 52.0 °F - 32.0 °F 47% 29.86 in 10.0 mi WSW 18.4 mph - N/A   Clear
4:56 PM 46.9 °F - 35.1 °F 63% 29.87 in 10.0 mi WSW 13.8 mph - N/A   Clear
5:56 PM 45.0 °F 39.3 °F 36.0 °F 71% 29.88 in 10.0 mi West 11.5 mph - N/A   Clear
6:56 PM 44.1 °F 35.9 °F 37.0 °F 76% 29.90 in 9.0 mi WSW 19.6 mph - N/A   Clear
7:56 PM 44.1 °F 36.2 °F 35.1 °F 71% 29.89 in 9.0 mi WSW 18.4 mph - N/A   Clear
8:56 PM 42.1 °F 35.2 °F 35.1 °F 76% 29.88 in 9.0 mi West 12.7 mph - N/A   Clear
9:56 PM 39.0 °F 33.4 °F 33.1 °F 79% 29.87 in 8.0 mi WNW 8.1 mph - N/A   Clear
10:56 PM 39.9 °F 34.5 °F 33.1 °F 77% 29.86 in 9.0 mi WNW 8.1 mph - N/A   Clear
11:56 PM 35.1 °F 29.3 °F 30.9 °F 85% 29.84 in 8.0 mi NW 6.9 mph - N/A   Clear